2019-071P (45124 NORAD) Tracking and Keplerian Element Data

This shows tracking and keplerian element data for the satellite.

Feedback or suggestion? Click here.




ElementValue
Catalog45124
Name2019-071P
Epoch Orbit310
Epoch Day52.86585108
Epoch Year2020
RAAN206.5063
Inclination51.6418
Eccentricity0.0010166
Argument of Perigee327.9512
Mean Anonmoly32.085
Mean Motion15.33216754
Decay Rate2.533E-05
L11 45124U 19071P 20052.86585108 .00002533 00000-0 89187-4 0 9994
L22 45124 51.6418 206.5063 0010166 327.9512 32.0850 15.33216754 3107

Live tracking and technical data element details for 2019-071P (NORAD 45124). 2019-071P can be tracked NOW for your location showing map with azimuth and elevation plus other details from your city location.

Track the satellite on the map from your city or location and see movement details for azimuth, elevation, latitude, longitude, range, height, and movement on the map or in text.







IsCatalogInMostPopularTable: catalog: 45124, numindb: 6
Update: records affected: 1



GetName: 45124 2019-071P

Hit Count: updated at: Wed, 26 Feb 2020 17:02:01 GMT